Time,TemperatureF,DewpointF,PressureIn,WindDirection,WindDirectionDegrees,WindSpeedMPH,WindSpeedGustMPH,Humidity,HourlyPrecipIn,Conditions,Clouds,dailyrainin,SoftwareType,DateUTC
2016-07-28 00:03:00,72.9,67.0,29.82,West,265,0.0,-999.0,81,-99.99,,,0.00,weatherlink.com 1.10,2016-07-28 07:03:00,
2016-07-28 00:18:00,72.8,67.0,29.82,West,265,0.0,-999.0,81,-99.99,,,0.00,weatherlink.com 1.10,2016-07-28 07:18:00,
2016-07-28 00:33:00,72.5,67.0,29.82,West,265,0.0,-999.0,82,-99.99,,,0.00,weatherlink.com 1.10,2016-07-28 07:33:00,
2016-07-28 00:48:00,72.3,67.0,29.82,West,265,0.0,-999.0,83,-99.99,,,0.00,weatherlink.com 1.10,2016-07-28 07:48:00,
2016-07-28 01:03:00,72.0,67.0,29.81,West,265,0.0,-999.0,83,-99.99,,,0.00,weatherlink.com 1.10,2016-07-28 08:03:00,
2016-07-28 01:18:00,71.8,66.0,29.81,West,265,0.0,-999.0,83,-99.99,,,0.00,weatherlink.com 1.10,2016-07-28 08:18:00,
2016-07-28 01:33:00,71.3,66.0,29.81,West,265,0.0,-999.0,83,-99.99,,,0.00,weatherlink.com 1.10,2016-07-28 08:33:00,
2016-07-28 01:48:00,71.1,66.0,29.81,West,265,0.0,-999.0,83,-99.99,,,0.00,weatherlink.com 1.10,2016-07-28 08:48:00,
2016-07-28 02:03:00,70.8,66.0,29.80,West,265,0.0,-999.0,84,-99.99,,,0.00,weatherlink.com 1.10,2016-07-28 09:03:00,
2016-07-28 02:18:00,70.6,66.0,29.80,West,265,0.0,-999.0,84,-99.99,,,0.00,weatherlink.com 1.10,2016-07-28 09:18:00,
2016-07-28 02:33:00,70.4,65.0,29.80,West,265,0.0,-999.0,84,-99.99,,,0.00,weatherlink.com 1.10,2016-07-28 09:33:00,
2016-07-28 02:48:00,70.7,66.0,29.81,West,265,0.0,-999.0,84,-99.99,,,0.00,weatherlink.com 1.10,2016-07-28 09:48:00,
2016-07-28 03:03:00,70.6,66.0,29.80,West,265,0.0,-999.0,85,-99.99,,,0.00,weatherlink.com 1.10,2016-07-28 10:03:00,
2016-07-28 03:19:00,70.4,66.0,29.80,West,265,0.0,-999.0,85,-99.99,,,0.00,weatherlink.com 1.10,2016-07-28 10:19:00,
2016-07-28 03:33:00,70.4,66.0,29.80,West,265,0.0,-999.0,85,-99.99,,,0.00,weatherlink.com 1.10,2016-07-28 10:33:00,
2016-07-28 03:48:00,70.2,66.0,29.80,West,265,0.0,-999.0,86,-99.99,,,0.00,weatherlink.com 1.10,2016-07-28 10:48:00,
2016-07-28 04:03:00,70.1,66.0,29.80,West,265,0.0,-999.0,86,-99.99,,,0.00,weatherlink.com 1.10,2016-07-28 11:03:00,
2016-07-28 04:18:00,69.9,66.0,29.80,West,265,0.0,-999.0,86,-99.99,,,0.00,weatherlink.com 1.10,2016-07-28 11:18:00,
2016-07-28 04:33:00,69.5,65.0,29.80,West,265,0.0,-999.0,86,-99.99,,,0.00,weatherlink.com 1.10,2016-07-28 11:33:00,
2016-07-28 04:48:00,69.2,65.0,29.80,West,265,0.0,-999.0,86,-99.99,,,0.00,weatherlink.com 1.10,2016-07-28 11:48:00,
2016-07-28 05:03:00,69.1,65.0,29.80,West,265,0.0,-999.0,86,-99.99,,,0.00,weatherlink.com 1.10,2016-07-28 12:03:00,
2016-07-28 05:18:00,68.9,65.0,29.80,West,265,0.0,-999.0,87,-99.99,,,0.00,weatherlink.com 1.10,2016-07-28 12:18:00,
2016-07-28 05:33:00,68.7,65.0,29.81,West,265,0.0,-999.0,87,-99.99,,,0.00,weatherlink.com 1.10,2016-07-28 12:33:00,
2016-07-28 05:48:00,68.3,64.0,29.81,West,265,0.0,-999.0,87,-99.99,,,0.00,weatherlink.com 1.10,2016-07-28 12:48:00,
2016-07-28 06:03:00,68.0,64.0,29.81,West,265,0.0,-999.0,87,-99.99,,,0.00,weatherlink.com 1.10,2016-07-28 13:03:00,
2016-07-28 06:18:00,67.8,64.0,29.82,West,265,0.0,-999.0,87,-99.99,,,0.00,weatherlink.com 1.10,2016-07-28 13:18:00,
2016-07-28 06:33:00,67.9,64.0,29.83,West,265,0.0,-999.0,87,-99.99,,,0.00,weatherlink.com 1.10,2016-07-28 13:33:00,
2016-07-28 06:48:00,68.4,64.0,29.83,West,265,0.0,-999.0,87,-99.99,,,0.00,weatherlink.com 1.10,2016-07-28 13:48:00,
2016-07-28 07:03:00,69.1,65.0,29.83,West,265,0.0,-999.0,87,-99.99,,,0.00,weatherlink.com 1.10,2016-07-28 14:03:00,
2016-07-28 07:18:00,70.0,66.0,29.83,West,265,0.0,-999.0,86,-99.99,,,0.00,weatherlink.com 1.10,2016-07-28 14:18:00,
2016-07-28 07:33:00,71.4,67.0,29.83,West,265,0.0,-999.0,86,-99.99,,,0.00,weatherlink.com 1.10,2016-07-28 14:33:00,
2016-07-28 07:48:00,72.8,68.0,29.83,West,265,0.0,-999.0,84,-99.99,,,0.00,weatherlink.com 1.10,2016-07-28 14:48:00,
2016-07-28 08:03:00,74.6,69.0,29.83,West,265,0.0,-999.0,82,-99.99,,,0.00,weatherlink.com 1.10,2016-07-28 15:03:00,
2016-07-28 08:18:00,75.5,69.0,29.83,West,265,1.0,-999.0,79,-99.99,,,0.00,weatherlink.com 1.10,2016-07-28 15:18:00,
2016-07-28 08:33:00,76.3,69.0,29.83,West,265,3.0,-999.0,77,-99.99,,,0.00,weatherlink.com 1.10,2016-07-28 15:33:00,
2016-07-28 08:48:00,77.5,69.0,29.83,ESE,121,0.0,-999.0,74,-99.99,,,0.00,weatherlink.com 1.10,2016-07-28 15:48:00,
2016-07-28 09:04:00,78.5,69.0,29.83,ESE,121,0.0,-999.0,72,-99.99,,,0.00,weatherlink.com 1.10,2016-07-28 16:04:00,
2016-07-28 09:18:00,80.0,69.0,29.83,East,94,0.0,-999.0,69,-99.99,,,0.00,weatherlink.com 1.10,2016-07-28 16:18:00,
2016-07-28 09:34:00,80.6,68.0,29.83,East,86,0.0,-999.0,66,-99.99,,,0.00,weatherlink.com 1.10,2016-07-28 16:34:00,
2016-07-28 09:49:00,80.5,68.0,29.82,ESE,115,0.0,-999.0,65,-99.99,,,0.00,weatherlink.com 1.10,2016-07-28 16:49:00,
2016-07-28 10:04:00,81.6,70.0,29.82,East,86,6.0,-999.0,67,-99.99,,,0.00,weatherlink.com 1.10,2016-07-28 17:04:00,
2016-07-28 10:19:00,81.8,70.0,29.83,ESE,122,0.0,-999.0,67,-99.99,,,0.00,weatherlink.com 1.10,2016-07-28 17:19:00,
2016-07-28 10:34:00,81.4,70.0,29.83,NE,56,5.0,-999.0,68,-99.99,,,0.00,weatherlink.com 1.10,2016-07-28 17:34:00,
2016-07-28 10:52:00,81.8,70.0,29.83,East,92,3.0,-999.0,67,-99.99,,,0.00,weatherlink.com 1.10,2016-07-28 17:52:00,
2016-07-28 11:04:00,81.4,69.0,29.83,South,188,3.0,-999.0,66,-99.99,,,0.00,weatherlink.com 1.10,2016-07-28 18:04:00,
2016-07-28 11:19:00,82.2,68.0,29.83,ESE,103,3.0,-999.0,62,-99.99,,,0.00,weatherlink.com 1.10,2016-07-28 18:19:00,
2016-07-28 11:34:00,83.0,66.0,29.83,ESE,105,2.0,-999.0,57,-99.99,,,0.00,weatherlink.com 1.10,2016-07-28 18:34:00,
2016-07-28 11:49:00,83.6,67.0,29.83,SE,128,3.0,-999.0,57,-99.99,,,0.00,weatherlink.com 1.10,2016-07-28 18:49:00,
2016-07-28 12:04:00,83.7,66.0,29.83,ESE,104,3.0,-999.0,56,-99.99,,,0.00,weatherlink.com 1.10,2016-07-28 19:04:00,
2016-07-28 12:19:00,84.0,66.0,29.83,ESE,107,7.0,-999.0,54,-99.99,,,0.00,weatherlink.com 1.10,2016-07-28 19:19:00,
2016-07-28 12:34:00,84.8,66.0,29.82,ESE,115,3.0,-999.0,54,-99.99,,,0.00,weatherlink.com 1.10,2016-07-28 19:34:00,
2016-07-28 12:49:00,85.7,65.0,29.82,SE,140,5.0,-999.0,51,-99.99,,,0.00,weatherlink.com 1.10,2016-07-28 19:49:00,
2016-07-28 13:04:00,85.5,65.0,29.81,ESE,103,4.0,-999.0,51,-99.99,,,0.00,weatherlink.com 1.10,2016-07-28 20:04:00,
2016-07-28 13:19:00,85.9,63.0,29.80,SE,135,3.0,-999.0,47,-99.99,,,0.00,weatherlink.com 1.10,2016-07-28 20:19:00,
2016-07-28 13:34:00,87.1,62.0,29.79,ESE,113,5.0,-999.0,43,-99.99,,,0.00,weatherlink.com 1.10,2016-07-28 20:34:00,
2016-07-28 13:49:00,88.3,63.0,29.79,SE,126,7.0,-999.0,43,-99.99,,,0.00,weatherlink.com 1.10,2016-07-28 20:49:00,
2016-07-28 14:04:00,88.5,63.0,29.78,SE,133,3.0,-999.0,43,-99.99,,,0.00,weatherlink.com 1.10,2016-07-28 21:04:00,
2016-07-28 14:19:00,88.2,62.0,29.77,ENE,65,1.0,-999.0,41,-99.99,,,0.00,weatherlink.com 1.10,2016-07-28 21:19:00,
2016-07-28 14:34:00,88.4,61.0,29.77,East,96,3.0,-999.0,40,-99.99,,,0.00,weatherlink.com 1.10,2016-07-28 21:34:00,
2016-07-28 14:49:00,88.3,59.0,29.76,ESE,119,3.0,-999.0,37,-99.99,,,0.00,weatherlink.com 1.10,2016-07-28 21:49:00,
2016-07-28 15:04:00,89.5,61.0,29.75,ESE,112,6.0,-999.0,38,-99.99,,,0.00,weatherlink.com 1.10,2016-07-28 22:04:00,
2016-07-28 15:19:00,90.4,61.0,29.74,ENE,67,0.0,-999.0,37,-99.99,,,0.00,weatherlink.com 1.10,2016-07-28 22:19:00,
2016-07-28 15:34:00,90.8,62.0,29.74,ENE,72,1.0,-999.0,38,-99.99,,,0.00,weatherlink.com 1.10,2016-07-28 22:34:00,
2016-07-28 15:49:00,91.3,61.0,29.74,ESE,109,0.0,-999.0,36,-99.99,,,0.00,weatherlink.com 1.10,2016-07-28 22:49:00,
2016-07-28 16:04:00,91.3,60.0,29.74,ENE,73,6.0,-999.0,35,-99.99,,,0.00,weatherlink.com 1.10,2016-07-28 23:04:00,
2016-07-28 16:20:00,90.6,60.0,29.74,East,101,7.0,-999.0,36,-99.99,,,0.00,weatherlink.com 1.10,2016-07-28 23:20:00,
2016-07-28 16:35:00,89.1,58.0,29.74,SSE,147,4.0,-999.0,35,-99.99,,,0.00,weatherlink.com 1.10,2016-07-28 23:35:00,
2016-07-28 16:49:00,89.5,58.0,29.73,ESE,116,3.0,-999.0,34,-99.99,,,0.00,weatherlink.com 1.10,2016-07-28 23:49:00,
2016-07-28 17:04:00,89.4,59.0,29.73,ESE,123,0.0,-999.0,36,-99.99,,,0.00,weatherlink.com 1.10,2016-07-29 00:04:00,
2016-07-28 17:19:00,90.7,66.0,29.72,SE,140,6.0,-999.0,44,-99.99,,,0.00,weatherlink.com 1.10,2016-07-29 00:19:00,
2016-07-28 17:34:00,89.8,66.0,29.72,South,180,0.0,-999.0,46,-99.99,,,0.00,weatherlink.com 1.10,2016-07-29 00:34:00,
2016-07-28 17:49:00,89.7,67.0,29.72,WSW,246,0.0,-999.0,47,-99.99,,,0.00,weatherlink.com 1.10,2016-07-29 00:49:00,
2016-07-28 18:05:00,88.4,67.0,29.72,South,171,0.0,-999.0,49,-99.99,,,0.00,weatherlink.com 1.10,2016-07-29 01:05:00,